XIWANG-1 (HOPE-1)

Last updated on Thu Oct 30 2025 00:03:10 GMT+0000 (Coordinated Universal Time)

1 36122U 09072B 25302.50991706 .00000002 00000+0 12095-3 0 9992 2 36122 100.3693 255.3872 0007985 43.8604 316.3142 13.16430399762659
UTC large
Height (km)
Speed (km/s)
/
Latitude / Longitude
Inclination (degrees)
Orbital Period (minutes)
Azimuth
Elevation
Range (km)
Doppler Factor

Next 0 passes for location: London (51.5072 / 0.1276)

Sorry there are no passes over London.